STARLINK-30064 (55700 NORAD) Tracking and Keplerian Element Data

This shows tracking and keplerian element data for the satellite.

Feedback or suggestion? Click here.




ElementValue
Catalog55700
NameSTARLINK-30064
Epoch Orbit130
Epoch Day62.91667824
Epoch Year2023
RAAN259.621
Inclination43.0101
Eccentricity0.0001656
Argument of Perigee279.9612
Mean Anonmoly177.8954
Mean Motion15.64988778
Decay Rate-0.00800209
L11 55700U 23026F 23062.91667824 -.00800209 00000+0 -87310-2 0 9997
L22 55700 43.0101 259.6210 0001656 279.9612 177.8954 15.64988778 1305



Live tracking and technical data element details for STARLINK-30064 (NORAD 55700). STARLINK-30064 can be tracked NOW for your location showing map with azimuth and elevation plus other details from your city location.







IsCatalogInMostPopularTable: catalog: 55700, numindb: 2
Update: records affected: 1



GetName: 55700 STARLINK-30064

Hit Count: updated at: Wed, 22 Mar 2023 16:03:08 GMT